QPF
0.01 0.00 0.00 0.00 0.00 0.00 0.00 0.00 0.00 0.00 0.00 0.00 0.00 0.00 0.00 0.00 0.00 0.00 0.00 0.00 0.00 0.00 0.01 0.01 0.01 0.01 0.01 0.01 0.01 0.01 0.01 0.00 0.00 0.00 0.00 0.00 0.00 0.01 0.01 0.01 0.01 0.01 0.01 0.01 0.01 0.01 0.01 0.01 0.02
0.01 0.00 0.00 0.00 0.00 0.00 0.00 0.00 0.00 0.00 0.00 0.00 0.00 0.00 0.00 0.00 0.00 0.00 0.00 0.00 0.00 0.00 0.00 0.01 0.01 0.01 0.01 0.01 0.01 0.01 0.01 0.00 0.00 0.00 0.00 0.01 0.01 0.01 0.01 0.01 0.01 0.01 0.01 0.01 0.01 0.01 0.01 0.01 0.01
0.01 0.01 0.00 0.00 0.00 0.00 0.00 0.00 0.00 0.00 0.00 0.00 0.00 0.00 0.00 0.00 0.00 0.00 0.00 0.00 0.00 0.00 0.00 0.01 0.01 0.01 0.01 0.01 0.01 0.01 0.01 0.01 0.00 0.00 0.00 0.00 0.01 0.01 0.01 0.01 0.01 0.01 0.01 0.01 0.01 0.01 0.01 0.01 0.01
0.01 0.01 0.00 0.00 0.00 0.00 0.00 0.00 0.00 0.00 0.00 0.00 0.00 0.00 0.00 0.00 0.00 0.00 0.00 0.00 0.00 0.00 0.00 0.01 0.01 0.01 0.01 0.01 0.01 0.00 0.01 0.01 0.01 0.00 0.00 0.00 0.01 0.01 0.01 0.01 0.00 0.00 0.00 0.00 0.00 0.00 0.01 0.01 0.01
0.01 0.01 0.00 0.00 0.00 0.00 0.00 0.00 0.00 0.00 0.00 0.00 0.00 0.00 0.00 0.00 0.00 0.00 0.00 0.00 0.00 0.00 0.00 0.01 0.01 0.01 0.01 0.01 0.00 0.00 0.00 0.00 0.00 0.00 0.00 0.01 0.01 0.01 0.01 0.01 0.00 0.00 0.00 0.00 0.00 0.00 0.00 0.01 0.01
0.02 0.01 0.00 0.00 0.00 0.00 0.00 0.00 0.00 0.00 0.00 0.00 0.00 0.00 0.00 0.00 0.00 0.00 0.00 0.00 0.00 0.00 0.01 0.01 0.01 0.01 0.01 0.01 0.01 0.00 0.00 0.00 0.00 0.00 0.01 0.01 0.01 0.01 0.01 0.01 0.00 0.00 0.00 0.00 0.00 0.00 0.00 0.00 0.01
0.01 0.01 0.00 0.00 0.00 0.00 0.00 0.00 0.00 0.00 0.00 0.00 0.00 0.00 0.00 0.00 0.00 0.00 0.01 0.01 0.01 0.01 0.01 0.01 0.02 0.02 0.02 0.01 0.01 0.01 0.00 0.00 0.00 0.00 0.00 0.00 0.01 0.01 0.01 0.01 0.01 0.01 0.00 0.00 0.00 0.00 0.00 0.00 0.01
0.01 0.01 0.00 0.00 0.00 0.00 0.00 0.00 0.00 0.00 0.00 0.00 0.00 0.00 0.00 0.00 0.00 0.00 0.01 0.01 0.01 0.01 0.01 0.01 0.02 0.02 0.02 0.02 0.02 0.01 0.00 0.00 0.00 0.00 0.00 0.00 0.00 0.00 0.00 0.00 0.00 0.00 0.00 0.00 0.00 0.00 0.00 0.00 0.01
0.01 0.01 0.00 0.00 0.00 0.00 0.00 0.00 0.00 0.00 0.00 0.00 0.00 0.00 0.00 0.00 0.00 0.01 0.01 0.01 0.01 0.01 0.01 0.01 0.02 0.03 0.03 0.03 0.02 0.02 0.01 0.01 0.01 0.00 0.01 0.00 0.00 0.00 0.00 0.00 0.00 0.00 0.01 0.01 0.01 0.01 0.01 0.00 0.00
0.02 0.01 0.00 0.00 0.00 0.00 0.00 0.00 0.00 0.00 0.00 0.00 0.00 0.00 0.00 0.00 0.00 0.01 0.01 0.01 0.00 0.01 0.01 0.01 0.02 0.02 0.04 0.04 0.03 0.02 0.01 0.01 0.01 0.00 0.00 0.00 0.00 0.00 0.00 0.00 0.00 0.00 0.00 0.01 0.01 0.02 0.01 0.00 0.00
0.01 0.01 0.00 0.00 0.00 0.00 0.00 0.00 0.00 0.00 0.00 0.00 0.00 0.00 0.00 0.00 0.00 0.00 0.00 0.00 0.01 0.01 0.01 0.01 0.02 0.02 0.03 0.04 0.04 0.03 0.02 0.01 0.01 0.00 0.00 0.00 0.00 0.00 0.00 0.00 0.00 0.00 0.00 0.00 0.00 0.00 0.00 0.00 0.00
0.01 0.00 0.00 0.00 0.00 0.00 0.00 0.00 0.00 0.00 0.00 0.00 0.00 0.00 0.00 0.00 0.00 0.00 0.00 0.01 0.01 0.01 0.02 0.03 0.03 0.03 0.04 0.04 0.04 0.04 0.03 0.01 0.01 0.00 0.00 0.00 0.00 0.00 0.00 0.00 0.00 0.00 0.00 0.00 0.00 0.00 0.00 0.00 0.01
0.01 0.00 0.00 0.00 0.00 0.00 0.00 0.00 0.00 0.00 0.00 0.00 0.00 0.00 0.00 0.00 0.00 0.00 0.01 0.01 0.01 0.01 0.02 0.02 0.03 0.04 0.04 0.04 0.05 0.05 0.04 0.02 0.02 0.02 0.01 0.00 0.00 0.00 0.00 0.00 0.00 0.00 0.00 0.00 0.00 0.00 0.00 0.00 0.00
0.00 0.00 0.00 0.00 0.00 0.00 0.00 0.00 0.00 0.00 0.00 0.00 0.00 0.00 0.00 0.00 0.00 0.00 0.00 0.01 0.01 0.01 0.01 0.01 0.02 0.03 0.04 0.04 0.04 0.05 0.05 0.04 0.03 0.02 0.01 0.01 0.01 0.00 0.00 0.00 0.00 0.00 0.00 0.01 0.00 0.00 0.00 0.00 0.00
0.01 0.01 0.01 0.00 0.00 0.01 0.01 0.00 0.00 0.00 0.00 0.00 0.00 0.00 0.00 0.00 0.00 0.00 0.00 0.00 0.01 0.00 0.00 0.01 0.01 0.02 0.02 0.03 0.04 0.05 0.06 0.05 0.04 0.03 0.02 0.02 0.02 0.02 0.01 0.01 0.01 0.01 0.01 0.01 0.01 0.01 0.00 0.00 0.00
0.01 0.02 0.01 0.00 0.00 0.00 0.01 0.01 0.00 0.00 0.00 0.00 0.00 0.00 0.00 0.00 0.00 0.00 0.00 0.00 0.00 0.00 0.00 0.01 0.01 0.01 0.01 0.02 0.03 0.04 0.05 0.05 0.05 0.04 0.03 0.03 0.03 0.03 0.02 0.02 0.02 0.02 0.02 0.02 0.01 0.01 0.01 0.01 0.01
0.02 0.02 0.01 0.01 0.00 0.00 0.01 0.00 0.00 0.00 0.00 0.00 0.00 0.00 0.00 0.00 0.00 0.00 0.00 0.00 0.00 0.00 0.00 0.00 0.01 0.01 0.01 0.01 0.02 0.03 0.03 0.04 0.04 0.04 0.04 0.03 0.03 0.03 0.02 0.02 0.02 0.02 0.02 0.02 0.01 0.01 0.01 0.01 0.01
0.06 0.03 0.01 0.01 0.00 0.01 0.00 0.00 0.00 0.00 0.00 0.00 0.00 0.00 0.00 0.00 0.00 0.00 0.00 0.00 0.00 0.00 0.00 0.00 0.01 0.00 0.01 0.01 0.02 0.02 0.03 0.03 0.03 0.03 0.03 0.03 0.03 0.03 0.02 0.02 0.02 0.01 0.01 0.01 0.01 0.01 0.01 0.00 0.00
0.05 0.05 0.03 0.01 0.01 0.01 0.00 0.00 0.00 0.00 0.00 0.00 0.00 0.00 0.00 0.00 0.00 0.00 0.00 0.00 0.00 0.00 0.00 0.00 0.01 0.01 0.01 0.01 0.01 0.01 0.01 0.01 0.01 0.01 0.02 0.02 0.02 0.02 0.03 0.02 0.02 0.01 0.01 0.01 0.01 0.01 0.01 0.00 0.00
0.03 0.03 0.02 0.01 0.01 0.02 0.01 0.00 0.00 0.00 0.00 0.00 0.00 0.00 0.00 0.00 0.00 0.00 0.00 0.00 0.00 0.00 0.00 0.00 0.00 0.01 0.01 0.00 0.00 0.00 0.01 0.01 0.02 0.02 0.02 0.01 0.01 0.01 0.02 0.02 0.02 0.01 0.01 0.01 0.02 0.02 0.02 0.01 0.01
0.01 0.01 0.01 0.01 0.01 0.01 0.01 0.00 0.00 0.00 0.00 0.00 0.00 0.00 0.00 0.00 0.00 0.00 0.00 0.00 0.00 0.00 0.00 0.00 0.00 0.00 0.01 0.01 0.01 0.01 0.01 0.02 0.02 0.02 0.02 0.01 0.01 0.01 0.01 0.01 0.01 0.01 0.01 0.01 0.02 0.02 0.02 0.02 0.02
0.01 0.01 0.01 0.01 0.01 0.01 0.01 0.01 0.00 0.00 0.01 0.01 0.00 0.00 0.00 0.00 0.00 0.00 0.00 0.00 0.00 0.00 0.00 0.00 0.00 0.00 0.01 0.01 0.01 0.01 0.01 0.01 0.00 0.00 0.01 0.01 0.01 0.01 0.01 0.01 0.01 0.02 0.02 0.02 0.01 0.02 0.02 0.02 0.02
0.01 0.01 0.01 0.01 0.01 0.01 0.01 0.01 0.01 0.00 0.01 0.01 0.01 0.01 0.01 0.00 0.00 0.00 0.00 0.00 0.00 0.00 0.00 0.00 0.00 0.00 0.00 0.01 0.01 0.01 0.01 0.00 0.00 0.00 0.01 0.01 0.01 0.01 0.01 0.01 0.02 0.02 0.01 0.01 0.01 0.01 0.01 0.02 0.02
0.02 0.02 0.02 0.02 0.03 0.03 0.01 0.01 0.01 0.01 0.02 0.02 0.01 0.00 0.00 0.01 0.01 0.01 0.00 0.00 0.00 0.00 0.00 0.00 0.00 0.00 0.00 0.00 0.01 0.01 0.01 0.01 0.00 0.00 0.00 0.01 0.01 0.01 0.01 0.01 0.01 0.01 0.01 0.01 0.01 0.01 0.01 0.02 0.02
0.03 0.05 0.07 0.07 0.07 0.03 0.01 0.01 0.02 0.02 0.03 0.02 0.01 0.00 0.00 0.00 0.01 0.01 0.01 0.00 0.00 0.00 0.00 0.00 0.00 0.00 0.00 0.00 0.00 0.01 0.01 0.01 0.00 0.00 0.00 0.00 0.00 0.00 0.01 0.01 0.01 0.01 0.01 0.01 0.01 0.02 0.02 0.02 0.03
0.03 0.05 0.05 0.04 0.04 0.02 0.01 0.01 0.02 0.02 0.02 0.01 0.01 0.00 0.00 0.00 0.00 0.00 0.00 0.00 0.00 0.00 0.00 0.00 0.00 0.00 0.00 0.00 0.00 0.00 0.00 0.00 0.00 0.00 0.00 0.00 0.00 0.00 0.01 0.01 0.01 0.01 0.01 0.02 0.01 0.01 0.01 0.01 0.02
0.03 0.04 0.04 0.03 0.02 0.02 0.02 0.03 0.02 0.00 0.00 0.00 0.00 0.00 0.00 0.00 0.00 0.00 0.00 0.00 0.00 0.00 0.00 0.00 0.00 0.00 0.00 0.00 0.00 0.00 0.00 0.00 0.00 0.00 0.00 0.00 0.00 0.00 0.01 0.01 0.01 0.01 0.01 0.01 0.01 0.01 0.01 0.01 0.01
0.03 0.03 0.04 0.04 0.03 0.02 0.02 0.02 0.02 0.01 0.00 0.00 0.00 0.00 0.00 0.00 0.00 0.00 0.00 0.00 0.00 0.00 0.00 0.00 0.00 0.00 0.00 0.00 0.00 0.00 0.00 0.00 0.00 0.00 0.00 0.00 0.00 0.00 0.01 0.01 0.01 0.01 0.01 0.01 0.01 0.01 0.01 0.01 0.01
0.02 0.02 0.04 0.04 0.03 0.02 0.01 0.02 0.02 0.01 0.01 0.01 0.00 0.00 0.00 0.00 0.00 0.00 0.00 0.00 0.00 0.00 0.00 0.00 0.00 0.00 0.00 0.00 0.00 0.00 0.00 0.00 0.00 0.00 0.00 0.00 0.00 0.00 0.00 0.01 0.01 0.00 0.00 0.00 0.01 0.01 0.01 0.01 0.01
0.01 0.02 0.03 0.05 0.04 0.02 0.02 0.02 0.01 0.01 0.00 0.00 0.01 0.00 0.00 0.00 0.00 0.00 0.00 0.00 0.00 0.00 0.00 0.00 0.00 0.00 0.00 0.00 0.00 0.00 0.00 0.00 0.00 0.00 0.00 0.00 0.00 0.00 0.00 0.00 0.00 0.00 0.00 0.00 0.00 0.01 0.01 0.01 0.01
MSLP
1011.34 1012.13 1012.96 1013.71 1014.25 1014.51 1014.48 1014.19 1013.74 1013.24 1012.79 1012.46 1012.27 1012.20 1012.18 1012.14 1012.02 1011.78 1011.46 1011.09 1010.76 1010.56 1010.53 1010.71 1011.09 1011.61 1012.19 1012.76 1013.26 1013.66 1013.95 1014.16 1014.33 1014.51 1014.73 1015.00 1015.31 1015.64 1015.96 1016.23 1016.43 1016.56 1016.62 1016.63 1016.60 1016.56 1016.52 1016.49 1016.47
1011.61 1012.42 1013.23 1013.89 1014.30 1014.39 1014.17 1013.70 1013.08 1012.44 1011.88 1011.48 1011.26 1011.19 1011.20 1011.21 1011.17 1011.04 1010.83 1010.60 1010.41 1010.34 1010.44 1010.72 1011.18 1011.76 1012.38 1012.97 1013.49 1013.90 1014.21 1014.45 1014.65 1014.85 1015.09 1015.37 1015.68 1015.99 1016.29 1016.53 1016.71 1016.82 1016.86 1016.86 1016.83 1016.79 1016.74 1016.70 1016.68
1011.83 1012.62 1013.34 1013.88 1014.13 1014.06 1013.68 1013.07 1012.36 1011.65 1011.07 1010.66 1010.46 1010.40 1010.45 1010.51 1010.52 1010.47 1010.36 1010.24 1010.17 1010.22 1010.44 1010.82 1011.35 1011.97 1012.61 1013.21 1013.73 1014.14 1014.47 1014.72 1014.94 1015.17 1015.42 1015.69 1015.99 1016.27 1016.53 1016.73 1016.87 1016.95 1016.99 1016.98 1016.96 1016.94 1016.91 1016.89 1016.89
1011.94 1012.66 1013.27 1013.65 1013.75 1013.53 1013.03 1012.36 1011.62 1010.93 1010.40 1010.06 1009.91 1009.91 1010.00 1010.10 1010.16 1010.16 1010.12 1010.08 1010.12 1010.27 1010.58 1011.03 1011.61 1012.25 1012.90 1013.48 1013.99 1014.39 1014.71 1014.97 1015.21 1015.46 1015.72 1015.99 1016.26 1016.51 1016.72 1016.88 1016.98 1017.03 1017.05 1017.06 1017.06 1017.07 1017.08 1017.11 1017.14
1011.92 1012.53 1013.00 1013.22 1013.16 1012.83 1012.27 1011.59 1010.90 1010.31 1009.89 1009.66 1009.62 1009.71 1009.85 1009.99 1010.08 1010.12 1010.13 1010.17 1010.27 1010.51 1010.88 1011.38 1011.98 1012.62 1013.24 1013.79 1014.26 1014.64 1014.95 1015.22 1015.47 1015.74 1016.01 1016.29 1016.55 1016.77 1016.94 1017.05 1017.11 1017.14 1017.15 1017.17 1017.20 1017.25 1017.32 1017.39 1017.47
1011.73 1012.23 1012.54 1012.61 1012.43 1012.01 1011.43 1010.80 1010.21 1009.77 1009.51 1009.45 1009.54 1009.73 1009.94 1010.13 1010.25 1010.32 1010.37 1010.45 1010.62 1010.91 1011.32 1011.85 1012.45 1013.06 1013.63 1014.13 1014.55 1014.89 1015.19 1015.47 1015.75 1016.04 1016.35 1016.64 1016.90 1017.11 1017.25 1017.33 1017.35 1017.36 1017.36 1017.38 1017.44 1017.53 1017.64 1017.76 1017.88
1011.41 1011.78 1011.95 1011.89 1011.60 1011.13 1010.57 1010.02 1009.57 1009.29 1009.22 1009.32 1009.55 1009.85 1010.14 1010.37 1010.53 1010.64 1010.73 1010.85 1011.07 1011.40 1011.85 1012.39 1012.97 1013.54 1014.05 1014.49 1014.86 1015.17 1015.46 1015.75 1016.06 1016.40 1016.75 1017.08 1017.35 1017.56 1017.69 1017.74 1017.74 1017.73 1017.72 1017.74 1017.81 1017.92 1018.06 1018.21 1018.35
1010.99 1011.25 1011.30 1011.14 1010.78 1010.29 1009.77 1009.30 1008.98 1008.86 1008.95 1009.20 1009.56 1009.95 1010.30 1010.59 1010.79 1010.94 1011.07 1011.26 1011.53 1011.91 1012.39 1012.93 1013.49 1014.02 1014.49 1014.87 1015.20 1015.48 1015.77 1016.08 1016.43 1016.82 1017.22 1017.59 1017.90 1018.12 1018.25 1018.28 1018.27 1018.24 1018.22 1018.23 1018.30 1018.41 1018.55 1018.70 1018.83
1010.53 1010.71 1010.67 1010.44 1010.04 1009.55 1009.07 1008.68 1008.47 1008.47 1008.67 1009.02 1009.46 1009.92 1010.33 1010.66 1010.91 1011.11 1011.31 1011.56 1011.90 1012.34 1012.85 1013.41 1013.97 1014.47 1014.90 1015.25 1015.55 1015.82 1016.12 1016.46 1016.85 1017.29 1017.74 1018.15 1018.49 1018.73 1018.87 1018.90 1018.88 1018.83 1018.80 1018.80 1018.85 1018.94 1019.06 1019.18 1019.28
1010.09 1010.21 1010.12 1009.86 1009.45 1008.98 1008.54 1008.21 1008.06 1008.12 1008.38 1008.78 1009.25 1009.73 1010.16 1010.53 1010.82 1011.09 1011.37 1011.70 1012.13 1012.63 1013.20 1013.80 1014.36 1014.86 1015.28 1015.62 1015.91 1016.19 1016.50 1016.87 1017.30 1017.78 1018.26 1018.71 1019.07 1019.33 1019.48 1019.52 1019.50 1019.44 1019.40 1019.38 1019.41 1019.47 1019.54 1019.62 1019.66
1009.67 1009.77 1009.69 1009.43 1009.05 1008.61 1008.20 1007.91 1007.78 1007.86 1008.10 1008.48 1008.93 1009.40 1009.83 1010.21 1010.55 1010.88 1011.25 1011.68 1012.19 1012.78 1013.42 1014.06 1014.66 1015.18 1015.61 1015.96 1016.26 1016.56 1016.89 1017.28 1017.74 1018.24 1018.74 1019.20 1019.58 1019.85 1020.00 1020.06 1020.04 1019.99 1019.94 1019.91 1019.91 1019.94 1019.97 1019.98 1019.97
1009.29 1009.41 1009.36 1009.15 1008.82 1008.44 1008.07 1007.80 1007.66 1007.69 1007.88 1008.19 1008.57 1008.98 1009.39 1009.78 1010.16 1010.56 1011.01 1011.53 1012.14 1012.81 1013.51 1014.21 1014.85 1015.41 1015.87 1016.25 1016.58 1016.91 1017.27 1017.68 1018.14 1018.64 1019.14 1019.59 1019.97 1020.23 1020.40 1020.46 1020.46 1020.43 1020.39 1020.36 1020.34 1020.33 1020.32 1020.28 1020.21
1008.92 1009.08 1009.10 1008.98 1008.74 1008.43 1008.11 1007.84 1007.67 1007.64 1007.74 1007.95 1008.24 1008.58 1008.94 1009.33 1009.75 1010.20 1010.73 1011.34 1012.02 1012.76 1013.53 1014.27 1014.96 1015.56 1016.06 1016.49 1016.87 1017.23 1017.61 1018.03 1018.49 1018.97 1019.44 1019.87 1020.22 1020.48 1020.64 1020.73 1020.75 1020.75 1020.73 1020.71 1020.69 1020.67 1020.62 1020.54 1020.43
1008.53 1008.75 1008.86 1008.85 1008.72 1008.50 1008.24 1007.99 1007.79 1007.68 1007.68 1007.79 1007.98 1008.25 1008.58 1008.97 1009.41 1009.92 1010.51 1011.18 1011.91 1012.70 1013.50 1014.28 1015.00 1015.64 1016.19 1016.67 1017.10 1017.50 1017.90 1018.32 1018.77 1019.21 1019.65 1020.03 1020.36 1020.60 1020.77 1020.88 1020.94 1020.97 1020.99 1021.00 1020.99 1020.97 1020.90 1020.80 1020.65
1008.08 1008.37 1008.58 1008.69 1008.69 1008.57 1008.38 1008.16 1007.94 1007.78 1007.69 1007.71 1007.82 1008.04 1008.34 1008.73 1009.20 1009.75 1010.39 1011.09 1011.85 1012.65 1013.46 1014.25 1014.99 1015.66 1016.26 1016.79 1017.26 1017.71 1018.14 1018.56 1018.99 1019.40 1019.79 1020.14 1020.43 1020.66 1020.84 1020.97 1021.07 1021.15 1021.21 1021.26 1021.28 1021.26 1021.20 1021.09 1020.93
1007.56 1007.91 1008.23 1008.46 1008.58 1008.58 1008.47 1008.28 1008.06 1007.85 1007.71 1007.66 1007.72 1007.90 1008.20 1008.60 1009.11 1009.70 1010.36 1011.08 1011.84 1012.63 1013.42 1014.19 1014.93 1015.62 1016.25 1016.83 1017.36 1017.86 1018.32 1018.76 1019.17 1019.56 1019.91 1020.22 1020.49 1020.72 1020.91 1021.07 1021.21 1021.34 1021.44 1021.53 1021.58 1021.59 1021.54 1021.43 1021.27
1006.98 1007.39 1007.80 1008.15 1008.39 1008.49 1008.45 1008.29 1008.07 1007.84 1007.65 1007.56 1007.59 1007.77 1008.08 1008.52 1009.06 1009.69 1010.37 1011.08 1011.82 1012.58 1013.33 1014.08 1014.80 1015.50 1016.17 1016.80 1017.39 1017.94 1018.44 1018.90 1019.31 1019.69 1020.02 1020.31 1020.57 1020.80 1021.01 1021.21 1021.39 1021.56 1021.71 1021.83 1021.91 1021.94 1021.91 1021.82 1021.68
1006.38 1006.83 1007.32 1007.77 1008.11 1008.29 1008.31 1008.18 1007.95 1007.69 1007.47 1007.35 1007.37 1007.55 1007.89 1008.37 1008.96 1009.61 1010.31 1011.02 1011.73 1012.45 1013.16 1013.87 1014.58 1015.30 1016.00 1016.68 1017.33 1017.94 1018.49 1018.98 1019.41 1019.79 1020.12 1020.41 1020.67 1020.92 1021.15 1021.38 1021.60 1021.81 1022.00 1022.15 1022.26 1022.32 1022.31 1022.25 1022.13
1005.79 1006.29 1006.86 1007.39 1007.80 1008.04 1008.08 1007.95 1007.69 1007.39 1007.12 1006.96 1006.97 1007.16 1007.53 1008.05 1008.68 1009.37 1010.08 1010.79 1011.48 1012.16 1012.84 1013.53 1014.24 1014.98 1015.72 1016.46 1017.17 1017.84 1018.45 1018.98 1019.44 1019.84 1020.18 1020.48 1020.76 1021.03 1021.30 1021.57 1021.82 1022.07 1022.28 1022.46 1022.60 1022.68 1022.71 1022.68 1022.60
1005.28 1005.83 1006.46 1007.05 1007.52 1007.78 1007.81 1007.64 1007.32 1006.94 1006.60 1006.39 1006.36 1006.54 1006.93 1007.48 1008.14 1008.87 1009.60 1010.32 1011.00 1011.67 1012.34 1013.03 1013.76 1014.52 1015.32 1016.12 1016.90 1017.64 1018.30 1018.88 1019.37 1019.79 1020.16 1020.49 1020.80 1021.10 1021.41 1021.72 1022.01 1022.29 1022.53 1022.73 1022.88 1023.00 1023.06 1023.08 1023.06
1004.87 1005.49 1006.18 1006.83 1007.32 1007.57 1007.57 1007.32 1006.90 1006.41 1005.96 1005.65 1005.56 1005.70 1006.07 1006.63 1007.32 1008.07 1008.83 1009.57 1010.27 1010.95 1011.63 1012.35 1013.11 1013.93 1014.78 1015.65 1016.50 1017.30 1018.02 1018.64 1019.17 1019.62 1020.01 1020.37 1020.73 1021.08 1021.43 1021.78 1022.11 1022.42 1022.69 1022.91 1023.09 1023.23 1023.34 1023.42 1023.46
1004.57 1005.27 1006.04 1006.73 1007.24 1007.46 1007.38 1007.03 1006.47 1005.84 1005.25 1004.82 1004.62 1004.69 1005.02 1005.56 1006.26 1007.02 1007.80 1008.57 1009.30 1010.02 1010.74 1011.50 1012.32 1013.20 1014.13 1015.06 1015.97 1016.82 1017.59 1018.24 1018.80 1019.28 1019.71 1020.11 1020.51 1020.92 1021.32 1021.72 1022.10 1022.44 1022.73 1022.98 1023.18 1023.36 1023.51 1023.66 1023.78
1004.38 1005.17 1006.01 1006.75 1007.25 1007.44 1007.27 1006.80 1006.10 1005.30 1004.55 1003.97 1003.65 1003.62 1003.88 1004.38 1005.05 1005.82 1006.62 1007.41 1008.17 1008.94 1009.71 1010.54 1011.42 1012.37 1013.36 1014.36 1015.32 1016.22 1017.01 1017.70 1018.28 1018.79 1019.25 1019.70 1020.15 1020.61 1021.08 1021.54 1021.96 1022.34 1022.67 1022.94 1023.17 1023.38 1023.58 1023.79 1023.99
1004.27 1005.14 1006.05 1006.82 1007.32 1007.46 1007.21 1006.62 1005.77 1004.82 1003.91 1003.19 1002.73 1002.60 1002.77 1003.21 1003.84 1004.59 1005.39 1006.20 1007.00 1007.80 1008.63 1009.52 1010.46 1011.47 1012.52 1013.57 1014.57 1015.50 1016.31 1017.02 1017.63 1018.16 1018.67 1019.16 1019.67 1020.19 1020.73 1021.24 1021.72 1022.15 1022.50 1022.80 1023.05 1023.29 1023.53 1023.79 1024.06
1004.20 1005.14 1006.09 1006.88 1007.37 1007.46 1007.14 1006.44 1005.48 1004.40 1003.37 1002.52 1001.95 1001.72 1001.81 1002.18 1002.76 1003.48 1004.26 1005.07 1005.88 1006.71 1007.58 1008.50 1009.50 1010.55 1011.64 1012.72 1013.75 1014.69 1015.52 1016.25 1016.88 1017.45 1017.99 1018.53 1019.10 1019.69 1020.30 1020.88 1021.41 1021.87 1022.26 1022.58 1022.85 1023.10 1023.37 1023.66 1023.98
1004.15 1005.11 1006.07 1006.85 1007.31 1007.36 1006.98 1006.21 1005.18 1004.02 1002.91 1001.99 1001.35 1001.05 1001.07 1001.38 1001.91 1002.59 1003.33 1004.12 1004.92 1005.75 1006.63 1007.57 1008.58 1009.66 1010.76 1011.85 1012.89 1013.84 1014.69 1015.43 1016.08 1016.68 1017.27 1017.87 1018.51 1019.16 1019.83 1020.47 1021.05 1021.55 1021.96 1022.29 1022.57 1022.82 1023.09 1023.39 1023.72
1004.08 1005.01 1005.93 1006.67 1007.08 1007.08 1006.66 1005.86 1004.81 1003.64 1002.52 1001.59 1000.93 1000.60 1000.60 1000.87 1001.36 1001.98 1002.68 1003.42 1004.19 1004.99 1005.84 1006.77 1007.76 1008.82 1009.92 1011.00 1012.04 1012.99 1013.85 1014.61 1015.29 1015.93 1016.57 1017.23 1017.92 1018.63 1019.35 1020.04 1020.66 1021.19 1021.62 1021.95 1022.22 1022.46 1022.71 1022.99 1023.31
1003.99 1004.83 1005.66 1006.31 1006.64 1006.60 1006.15 1005.36 1004.33 1003.21 1002.15 1001.27 1000.66 1000.37 1000.37 1000.63 1001.08 1001.66 1002.31 1002.99 1003.70 1004.44 1005.24 1006.12 1007.07 1008.09 1009.15 1010.21 1011.23 1012.18 1013.05 1013.83 1014.55 1015.23 1015.92 1016.62 1017.36 1018.13 1018.89 1019.61 1020.25 1020.79 1021.22 1021.55 1021.80 1022.01 1022.22 1022.47 1022.75
1003.87 1004.56 1005.24 1005.76 1006.01 1005.90 1005.44 1004.68 1003.73 1002.71 1001.77 1001.01 1000.50 1000.28 1000.33 1000.61 1001.05 1001.59 1002.18 1002.79 1003.43 1004.10 1004.82 1005.63 1006.52 1007.48 1008.49 1009.51 1010.51 1011.46 1012.33 1013.13 1013.89 1014.61 1015.33 1016.08 1016.86 1017.65 1018.42 1019.16 1019.80 1020.34 1020.76 1021.08 1021.31 1021.49 1021.67 1021.87 1022.10
1003.74 1004.24 1004.74 1005.11 1005.23 1005.06 1004.60 1003.89 1003.04 1002.16 1001.37 1000.76 1000.39 1000.28 1000.41 1000.72 1001.16 1001.68 1002.21 1002.76 1003.32 1003.91 1004.55 1005.27 1006.09 1006.99 1007.94 1008.93 1009.90 1010.84 1011.72 1012.54 1013.32 1014.07 1014.83 1015.60 1016.39 1017.18 1017.96 1018.68 1019.32 1019.84 1020.25 1020.55 1020.76 1020.93 1021.07 1021.23 1021.41
Thickness
5690 5692 5692 5686 5673 5661 5669 5685 5696 5702 5707 5715 5721 5723 5721 5720 5720 5723 5736 5744 5745 5745 5745 5745 5744 5743 5742 5742 5741 5741 5740 5740 5740 5739 5739 5738 5738 5738 5737 5737 5736 5736 5736 5736 5735 5735 5734 5734 5733
5683 5684 5680 5671 5659 5654 5668 5685 5692 5702 5710 5714 5717 5719 5719 5719 5726 5730 5734 5738 5741 5741 5741 5740 5740 5739 5738 5737 5737 5736 5736 5736 5735 5735 5735 5734 5734 5733 5733 5733 5732 5731 5731 5731 5731 5730 5730 5729 5728
5676 5676 5666 5657 5653 5658 5677 5690 5692 5700 5706 5709 5710 5713 5715 5717 5723 5727 5731 5735 5736 5736 5736 5736 5735 5734 5734 5733 5732 5732 5732 5731 5731 5731 5730 5730 5729 5729 5728 5728 5727 5727 5726 5726 5725 5725 5725 5724 5724
5666 5660 5654 5650 5655 5666 5679 5690 5692 5694 5701 5705 5705 5705 5711 5717 5721 5725 5728 5729 5729 5729 5730 5730 5730 5730 5729 5728 5728 5727 5727 5727 5726 5726 5725 5725 5724 5724 5723 5722 5722 5722 5721 5721 5720 5720 5720 5719 5718
5655 5649 5644 5644 5655 5667 5675 5683 5689 5691 5693 5697 5699 5699 5703 5711 5717 5720 5722 5723 5723 5723 5724 5724 5724 5724 5723 5723 5723 5722 5722 5722 5721 5721 5720 5720 5719 5718 5718 5717 5717 5717 5716 5716 5715 5715 5714 5713 5713
5641 5639 5634 5639 5653 5665 5673 5681 5685 5686 5687 5691 5692 5692 5698 5706 5710 5712 5715 5715 5716 5717 5718 5718 5718 5718 5718 5717 5717 5717 5717 5716 5716 5715 5715 5714 5713 5713 5712 5712 5711 5711 5711 5710 5710 5709 5708 5708 5707
5634 5632 5633 5641 5648 5659 5671 5677 5678 5680 5682 5685 5689 5686 5692 5699 5703 5705 5707 5707 5708 5710 5711 5711 5712 5712 5711 5711 5711 5711 5711 5710 5710 5709 5709 5708 5707 5707 5706 5706 5706 5705 5705 5704 5704 5703 5702 5701 5700
5632 5628 5631 5636 5644 5655 5668 5672 5676 5677 5679 5683 5686 5682 5686 5694 5696 5698 5698 5699 5700 5702 5703 5704 5705 5705 5705 5705 5705 5705 5704 5704 5703 5703 5702 5702 5701 5700 5700 5700 5700 5699 5699 5698 5698 5697 5696 5695 5694
5627 5619 5624 5635 5642 5653 5662 5664 5668 5673 5673 5677 5680 5683 5687 5689 5689 5689 5689 5690 5691 5693 5695 5697 5698 5699 5699 5699 5698 5698 5698 5698 5697 5696 5696 5695 5695 5694 5694 5693 5693 5693 5692 5692 5691 5690 5689 5688 5687
5616 5614 5627 5640 5645 5649 5654 5657 5659 5664 5665 5668 5672 5675 5678 5680 5682 5683 5683 5683 5684 5685 5687 5690 5691 5692 5692 5692 5692 5692 5692 5691 5691 5690 5690 5689 5689 5688 5687 5687 5686 5686 5685 5684 5684 5683 5682 5681 5680
5612 5616 5628 5636 5642 5645 5647 5650 5655 5657 5658 5665 5667 5668 5670 5671 5674 5676 5677 5678 5679 5680 5681 5683 5685 5686 5686 5686 5686 5685 5685 5685 5684 5684 5683 5683 5682 5682 5681 5680 5680 5679 5678 5677 5676 5676 5674 5673 5672
5605 5613 5621 5629 5635 5638 5640 5643 5645 5650 5658 5664 5665 5665 5665 5665 5667 5670 5670 5672 5672 5673 5675 5677 5678 5679 5679 5680 5679 5679 5678 5678 5678 5677 5677 5676 5676 5675 5674 5673 5673 5672 5671 5670 5669 5668 5667 5666 5665
5599 5606 5614 5619 5624 5628 5631 5634 5637 5643 5649 5654 5656 5657 5657 5658 5660 5663 5664 5665 5666 5667 5668 5670 5672 5672 5673 5673 5673 5673 5672 5672 5671 5671 5671 5670 5669 5668 5667 5667 5666 5665 5664 5663 5661 5660 5659 5658 5657
5594 5599 5604 5610 5615 5620 5623 5626 5630 5636 5640 5643 5646 5647 5649 5651 5654 5655 5657 5658 5660 5662 5663 5664 5665 5666 5666 5667 5667 5666 5666 5666 5665 5665 5664 5664 5663 5662 5661 5660 5659 5658 5657 5655 5654 5653 5651 5650 5649
5585 5587 5593 5600 5606 5611 5615 5616 5621 5629 5631 5633 5636 5638 5642 5644 5647 5649 5652 5654 5656 5657 5658 5658 5660 5660 5660 5660 5660 5660 5660 5659 5659 5658 5658 5657 5657 5656 5655 5653 5652 5651 5649 5648 5646 5645 5643 5642 5640
5574 5574 5577 5591 5598 5603 5603 5605 5615 5619 5622 5624 5626 5629 5633 5637 5640 5644 5646 5648 5649 5651 5652 5653 5654 5653 5653 5653 5653 5653 5653 5653 5652 5652 5651 5651 5650 5649 5648 5646 5645 5643 5642 5640 5638 5637 5635 5633 5631
5558 5558 5567 5580 5590 5593 5594 5598 5607 5610 5613 5614 5616 5619 5624 5628 5633 5636 5639 5642 5643 5644 5645 5646 5647 5647 5647 5646 5646 5646 5646 5646 5645 5645 5645 5644 5643 5642 5641 5640 5638 5636 5634 5633 5631 5629 5626 5624 5623
5546 5550 5559 5568 5579 5582 5583 5589 5596 5599 5603 5604 5606 5610 5615 5621 5627 5630 5632 5635 5637 5638 5639 5639 5640 5640 5640 5639 5638 5638 5638 5638 5638 5638 5638 5638 5637 5636 5635 5633 5631 5629 5627 5625 5623 5621 5619 5617 5615
5543 5544 5548 5558 5569 5571 5573 5579 5585 5589 5593 5595 5598 5602 5607 5614 5620 5622 5625 5627 5629 5630 5632 5633 5633 5633 5633 5632 5631 5630 5630 5631 5631 5631 5631 5631 5630 5629 5628 5626 5624 5622 5620 5618 5616 5613 5611 5608 5608
5534 5534 5538 5548 5559 5562 5563 5570 5577 5583 5588 5592 5595 5597 5601 5606 5611 5614 5617 5619 5622 5624 5625 5626 5627 5627 5628 5628 5627 5625 5625 5624 5624 5624 5624 5624 5623 5622 5620 5619 5617 5615 5613 5610 5608 5606 5602 5600 5599
5525 5527 5531 5537 5545 5551 5555 5562 5569 5578 5581 5585 5588 5591 5594 5599 5603 5607 5609 5612 5613 5616 5618 5621 5621 5622 5621 5621 5620 5618 5617 5616 5616 5617 5617 5617 5616 5615 5613 5612 5610 5608 5606 5603 5601 5599 5596 5593 5590
5517 5526 5529 5530 5529 5529 5543 5543 5560 5566 5570 5577 5580 5582 5586 5592 5595 5599 5602 5605 5607 5609 5611 5613 5614 5615 5614 5614 5614 5613 5612 5611 5611 5610 5610 5609 5609 5608 5606 5605 5603 5601 5599 5596 5594 5592 5589 5586 5583
5512 5518 5519 5520 5518 5518 5528 5531 5546 5554 5560 5569 5573 5576 5579 5583 5587 5591 5595 5598 5600 5602 5603 5605 5606 5607 5607 5608 5608 5608 5607 5606 5604 5604 5603 5602 5602 5601 5599 5598 5596 5594 5592 5589 5587 5585 5582 5579 5576
5505 5506 5507 5505 5505 5511 5522 5521 5533 5541 5554 5563 5568 5569 5572 5574 5578 5582 5585 5588 5591 5593 5594 5596 5598 5599 5600 5600 5601 5601 5600 5598 5597 5597 5596 5595 5594 5593 5592 5590 5588 5586 5585 5582 5580 5578 5576 5573 5570
5498 5494 5490 5492 5495 5506 5514 5517 5529 5544 5549 5556 5560 5562 5563 5566 5569 5572 5576 5579 5582 5584 5586 5588 5590 5591 5592 5593 5593 5593 5593 5592 5591 5591 5589 5588 5587 5585 5584 5583 5581 5579 5577 5575 5573 5571 5569 5566 5564
5488 5491 5485 5488 5492 5497 5503 5508 5526 5537 5541 5546 5551 5554 5555 5558 5561 5564 5567 5570 5573 5576 5578 5580 5581 5582 5584 5585 5585 5585 5585 5584 5584 5583 5583 5582 5581 5579 5578 5575 5573 5572 5570 5568 5566 5564 5562 5560 5558
5480 5479 5484 5477 5477 5487 5495 5502 5519 5528 5532 5536 5540 5542 5545 5549 5552 5555 5558 5561 5564 5567 5569 5571 5573 5574 5575 5577 5577 5577 5577 5577 5576 5576 5575 5574 5573 5572 5570 5568 5566 5564 5563 5561 5559 5557 5555 5553 5551
5477 5474 5468 5471 5477 5486 5497 5499 5506 5518 5521 5525 5527 5530 5535 5539 5541 5544 5548 5551 5554 5557 5559 5561 5563 5565 5567 5568 5570 5570 5569 5569 5568 5568 5567 5566 5565 5564 5562 5561 5559 5557 5555 5554 5552 5550 5548 5546 5544
5465 5466 5464 5460 5467 5475 5482 5495 5507 5509 5513 5514 5517 5520 5524 5527 5530 5533 5536 5540 5543 5546 5548 5551 5553 5556 5557 5559 5561 5561 5560 5560 5560 5559 5558 5558 5557 5556 5555 5553 5552 5550 5548 5546 5544 5542 5541 5539 5537
5459 5459 5458 5460 5456 5456 5467 5486 5499 5499 5502 5505 5507 5510 5514 5517 5519 5522 5525 5528 5531 5535 5538 5541 5543 5546 5548 5549 5551 5552 5551 5551 5551 5551 5550 5549 5549 5548 5547 5546 5544 5543 5541 5539 5537 5535 5534 5531 5530